Pineville, WV

6:05 AM EDT on July 28, 2017 (GMT -0400)
Pineville

Weather History for KI16 - October, 2013

Change the Weather History Date:

Thursday, October 17, 2013

  Actual Average (KBKW) Record (KBKW)
Temperature  
Mean Temperature 60 °F -  
Max Temperature 70 °F 62 °F 84 °F (1938)
Min Temperature 51 °F 42 °F 22 °F (1952)
Degree Days  
Heating Degree Days 4    
Growing Degree Days 10 (Base 50)    
Moisture  
Dew Point 60 °F    
Average Humidity 97    
Maximum Humidity 100    
Minimum Humidity 84    
Precipitation  
Precipitation 0.00 in - - ()
Sea Level Pressure  
Sea Level Pressure 29.97 in    
Wind  
Wind Speed - (North)    
Max Wind Speed -    
Max Gust Speed -    
Visibility 8 miles    
Events Rain    
Averages and records for this station are not official NWS values.
T = Trace of Precipitation, MM = Missing Value Source: NWS Daily Summary

Daily Weather History Graph

Daily Weather History Graph

Search for Another Location

Airport or City:

Trip Planner

Search our weather history database for the weather conditions in past years. The results will help you decide how hot, cold, wet, or windy it might be!

Date:

Astronomy

Oct. 17, 2013 Rise Set
Actual Time 7:36 AM EDT 6:45 PM EDT
Civil Twilight 7:10 AM EDT 7:12 PM EDT
Nautical Twilight 6:39 AM EDT 7:42 PM EDT
Astronomical Twilight 6:09 AM EDT 8:12 PM EDT
Moon 5:58 PM EDT (10/17) 6:08 AM EDT (10/17)
Length of Visible Light 12h 02m
Length of Day
11h 09m
Waxing Gibbous, 98% of the Moon is Illuminated
Oct 17
Waxing Gibbous
Oct 18
Full
Oct 26
Last Quarter
Nov 3
New
Nov 10
First Quarter

Hourly Weather History & Observations

Time (EDT) Temp. Dew Point Humidity Pressure Visibility Wind Dir Wind Speed Gust Speed Precip Events Conditions
12:15 AM 61.7 °F 61.7 °F 100% 30.03 in 7.0 mi North - - N/A   Overcast
12:35 AM 61.7 °F 61.7 °F 100% 30.03 in 7.0 mi North - - N/A   Overcast
12:55 AM 61.9 °F 61.7 °F 99% 30.03 in 10.0 mi North - - N/A   Overcast
1:15 AM 62.1 °F 61.9 °F 99% 30.02 in 10.0 mi North - - N/A   Overcast
1:35 AM 62.2 °F 62.2 °F 100% 30.01 in 10.0 mi North - - N/A   Overcast
1:55 AM 62.1 °F 61.9 °F 99% 30.01 in 7.0 mi North - - N/A   Overcast
2:15 AM 62.1 °F 61.9 °F 99% 30.01 in 7.0 mi North - - N/A   Overcast
2:35 AM 61.9 °F 61.9 °F 100% 30.01 in 10.0 mi North - - N/A   Overcast
2:55 AM 62.2 °F 62.2 °F 100% 30.01 in 10.0 mi North - - N/A   Overcast
3:15 AM 61.9 °F 61.7 °F 99% 30.00 in 7.0 mi North - - N/A   Overcast
3:35 AM 62.1 °F 62.1 °F 100% 30.00 in 7.0 mi North - - N/A   Overcast
3:55 AM 61.9 °F 61.9 °F 100% 29.99 in 7.0 mi North - - N/A Rain Light Rain
4:15 AM 61.9 °F 61.9 °F 100% 29.99 in 7.0 mi North - - N/A   Overcast
4:35 AM 61.9 °F 61.9 °F 100% 29.99 in 7.0 mi North - - N/A   Overcast
4:55 AM 61.9 °F 61.9 °F 100% 29.98 in 7.0 mi North - - N/A   Overcast
5:15 AM 61.9 °F 61.9 °F 100% 29.98 in 7.0 mi North - - N/A   Overcast
5:35 AM 61.9 °F 61.9 °F 100% 29.98 in 5.0 mi North - - N/A   Light Drizzle
5:55 AM 61.9 °F 61.9 °F 100% 29.98 in 5.0 mi North - - N/A   Overcast
6:15 AM 62.1 °F 62.1 °F 100% 29.98 in 7.0 mi North - - N/A   Overcast
6:35 AM 62.1 °F 62.1 °F 100% 29.98 in 7.0 mi North - - N/A   Overcast
6:55 AM 61.9 °F 61.9 °F 100% 29.98 in 7.0 mi North - - N/A   Overcast
7:15 AM 62.1 °F 61.9 °F 99% 29.97 in 10.0 mi North - - N/A   Overcast
7:35 AM 61.7 °F 61.7 °F 100% 29.97 in 7.0 mi North - - N/A   Overcast
7:55 AM 62.1 °F 62.1 °F 100% 29.97 in 7.0 mi North - - N/A Rain Rain
8:15 AM 61.7 °F 61.7 °F 100% 29.97 in 4.0 mi North - - N/A   Light Drizzle
8:35 AM 61.9 °F 61.9 °F 100% 29.97 in 5.0 mi North - - N/A   Overcast
8:55 AM 61.9 °F 61.9 °F 100% 29.97 in 5.0 mi North - - N/A   Overcast
9:15 AM 62.4 °F 62.1 °F 99% 29.97 in 7.0 mi North - - N/A   Overcast
9:35 AM 62.8 °F 62.6 °F 99% 29.97 in 7.0 mi North - - N/A   Overcast
9:55 AM 62.8 °F 62.6 °F 99% 29.96 in 2.0 mi North - - N/A Rain Light Rain
10:15 AM 63.5 °F 63.0 °F 98% 29.96 in 5.0 mi North - - N/A Rain Rain
10:35 AM 63.7 °F 63.3 °F 99% 29.95 in 5.0 mi North - - N/A   Light Drizzle
10:55 AM 63.7 °F 63.0 °F 97% 29.95 in 7.0 mi North - - N/A   Overcast
11:15 AM 64.0 °F 63.5 °F 98% 29.95 in 5.0 mi North - - N/A Rain Rain
11:35 AM 64.4 °F 63.9 °F 98% 29.94 in 2.0 mi North - - N/A Rain Rain
11:55 AM 64.4 °F 63.9 °F 98% 29.94 in 2.5 mi North - - N/A Rain Rain
12:15 PM 64.6 °F 64.4 °F 99% 29.93 in 2.5 mi North - - N/A Rain Light Rain
12:35 PM 65.1 °F 64.4 °F 98% 29.93 in 10.0 mi North - - N/A   Overcast
12:55 PM 65.8 °F 64.9 °F 97% 29.91 in 10.0 mi North - - N/A   Overcast
1:15 PM 67.1 °F 65.5 °F 95% 29.90 in 10.0 mi North - - N/A   Overcast
1:35 PM 68.0 °F 64.9 °F 90% 29.90 in 10.0 mi North - - N/A   Overcast
1:55 PM 68.0 °F 65.7 °F 92% 29.89 in 10.0 mi North - - N/A   Overcast
2:15 PM 68.2 °F 65.8 °F 92% 29.88 in 10.0 mi North - - N/A   Overcast
2:35 PM 68.2 °F 65.8 °F 92% 29.87 in 10.0 mi North - - N/A   Overcast
2:55 PM 67.8 °F 66.2 °F 95% 29.87 in 5.0 mi North - - N/A   Light Drizzle
3:15 PM 69.1 °F 65.5 °F 88% 29.85 in 10.0 mi North - - N/A   Overcast
3:35 PM 70.0 °F 64.9 °F 84% 29.85 in 10.0 mi North - - N/A   Overcast
3:55 PM 69.4 °F 64.4 °F 84% 29.85 in 10.0 mi North - - N/A   Overcast
4:15 PM 67.1 °F 64.4 °F 91% 29.89 in 1.5 mi North - - N/A Rain Heavy Rain
4:35 PM 61.2 °F 59.5 °F 94% 29.93 in 10.0 mi North - - N/A   Overcast
4:55 PM 59.2 °F 58.1 °F 96% 29.93 in 10.0 mi North - - N/A   Overcast
5:15 PM 58.3 °F 57.4 °F 97% 29.94 in 7.0 mi North - - N/A Rain Light Rain
5:35 PM 57.7 °F 56.8 °F 97% 29.94 in 10.0 mi North - - N/A   Overcast
5:55 PM 57.2 °F 56.1 °F 96% 29.95 in 10.0 mi North - - N/A   Overcast
6:15 PM 56.7 °F 55.9 °F 97% 29.96 in 10.0 mi North - - N/A   Overcast
6:35 PM 56.5 °F 55.6 °F 97% 29.98 in 10.0 mi North - - N/A   Overcast
6:55 PM 56.3 °F 55.4 °F 97% 29.99 in 10.0 mi North - - N/A   Overcast
7:15 PM 55.8 °F 54.9 °F 97% 29.99 in 10.0 mi North - - N/A   Overcast
7:35 PM 55.6 °F 54.5 °F 96% 30.00 in 10.0 mi North - - N/A   Overcast
7:55 PM 55.4 °F 53.2 °F 92% 30.02 in 10.0 mi North - - N/A   Overcast
8:15 PM 55.0 °F 52.7 °F 92% 30.02 in 10.0 mi North - - N/A   Overcast
8:35 PM 54.7 °F 52.9 °F 94% 30.03 in 5.0 mi North - - N/A   Overcast
8:55 PM 54.5 °F 52.9 °F 94% 30.04 in 10.0 mi North - - N/A   Light Drizzle
9:15 PM 53.8 °F 52.0 °F 94% 30.05 in 4.0 mi North - - N/A   Drizzle
9:35 PM 52.9 °F 52.0 °F 97% 30.06 in 3.0 mi North - - N/A   Drizzle
9:55 PM 52.7 °F 51.6 °F 96% 30.06 in 10.0 mi North - - N/A   Overcast
10:15 PM 52.0 °F 51.6 °F 99% 30.06 in 10.0 mi North - - N/A   Overcast
10:35 PM 52.2 °F 52.0 °F 99% 30.06 in 10.0 mi North - - N/A   Overcast
10:55 PM 51.8 °F 51.8 °F 100% 30.06 in 10.0 mi North - - N/A   Overcast
11:15 PM 51.8 °F 51.8 °F 100% 30.06 in 10.0 mi North - - N/A   Overcast
11:35 PM 52.0 °F 52.0 °F 100% 30.06 in 10.0 mi North - - N/A   Overcast
11:55 PM 51.8 °F 51.8 °F 100% 30.06 in 10.0 mi North - - N/A   Overcast